Regional Weather Roundup
Issued by NWS Green Bay, WI

Home | Current Version | Previous Version | Text Only | Print | Product List | Glossary On
Versions: 1 2 3 4 5 6 7 8 9 10 11 12 13 14 15 16 17 18 19 20 21 22 23 24 25 26 27 28 29 30 31 32 33 34 35 36 37 38 39 40 41 42 43 44 45 46 47 48 49 50
000
ASUS43 KGRB 180011
RWRGRB

NORTH-CENTRAL AND NORTHEAST WISCONSIN REGIONAL WEATHER ROUNDUP
NATIONAL WEATHER SERVICE GREEN BAY WI
700 PM CDT THU AUG 17 2017

WIZ005-009-010>012-018-019-180100-
NORTH CENTRAL WISCONSIN

CITY           SKY/WX    TMP DP  RH WIND       PRES   REMARKS
IRONWOOD       LGT RAIN  59  58  96 NW13      29.68R FOG
MANITOWISH WTR CLOUDY    60  60 100 N14G20    29.65R
ARBOR VITAE    CLOUDY    62  60  92 NW14G22   29.63R
EAGLE RIVER    DRIZZLE   65  64  98 NW15G22   29.60R
LAND O LAKES   RAIN      66  64  92 W9G17     29.60R
RHINELANDER    LGT RAIN  66  65  96 NW12G23   29.61R FOG
PHILLIPS       CLOUDY    61  60  97 NW8       29.67R
ANTIGO         CLOUDY    68  66  92 NW12      29.59R
TOMAHAWK         N/A     64  62  91 W10G16    29.64R
MERRILL        CLOUDY    66  66 100 W13       29.63R
$$

WIZ013-073-180100-
NORTHEAST WISCONSIN

CITY           SKY/WX    TMP DP  RH WIND       PRES   REMARKS
IRON MOUNTAIN  LGT RAIN  69  65  86 N6        29.53S FOG
MARINETTE      NOT AVBL
OCONTO         CLOUDY    70  67  92 SW7       29.54R
$$

WIZ017-030-035>037-045-180100-
CENTRAL WISCONSIN

CITY           SKY/WX    TMP DP  RH WIND       PRES   REMARKS
MEDFORD        CLOUDY    62  59  90 NW15      29.67R
WAUSAU         CLOUDY    66  63  90 W17G26    29.61R
MOSINEE        CLOUDY    64  64 100 W17G23    29.64R
MARSHFIELD     LGT RAIN  63  60  90 W14G28    29.67R FOG
WISC RAPIDS    CLOUDY    66  63  90 W13       29.68R
STEVENS POINT  CLOUDY    64  63  96 W15G24    29.65R
WAUPACA        CLOUDY    71  65  82 W12G24    29.62R
SHAWANO        MOCLDY    74  67  78 SW12G18   29.55S
CLINTONVILLE   CLOUDY    70  64  83 W12G17    29.58R
WAUTOMA        CLOUDY    67  64  90 W16G28    29.66R
$$

WIZ038-039-048-051-180100-
FOX VALLEY

CITY           SKY/WX    TMP DP  RH WIND       PRES   REMARKS
NWS GREEN BAY  CLOUDY    73  68  84 SW15G25   29.57R
APPLETON       CLOUDY    70  68  94 W15       29.59R
OSHKOSH        LGT RAIN  70  66  87 W13G22    29.62R
FOND DU LAC    CLOUDY    73  63  70 W15G21    29.63R
$$

WIZ022-050-052-180100-
EAST CENTRAL WISCONSIN

CITY           SKY/WX    TMP DP  RH WIND       PRES   REMARKS
EPHRAIM        CLOUDY    71  65  81 S3        29.53S
WASHINGTON ISL MOCLDY    69  67  94 S7        29.53S
STURGEON BAY   CLOUDY    73  66  78 SW13G23   29.55S
MANITOWOC      LGT RAIN  72  66  81 W9        29.60R
SHEBOYGAN      MOCLDY    73  67  81 SW14G22   29.62R
$$

LMZ563-521-522-541>543-180100-
LAKESHORE

STATION/POSITION TIME  TEMP    WIND        PRES    VSBY  WAVE
                       AIR SEA DIR/SP/G                  HT/PER
                 (UTC) (F)     (DEG/KT/KT) (MB)    (MI)  (FT/S)
SHEBOYGAN LKSHOR 0000   75     240/ 16/ 21 1002.1R
KEWAUNEE LKSHORE 2342   75     220/  8/ 11 1000.6R
NORTHPORT PIER   2340   71     150/  6/ 10 1000.3F
N MID LAKE BUOY  2350   69 68  190/ 16/ 17 1000.6F         5/ 6
S GREEN BAY BUOY 0000   72 72  220/ 16/ 19 1000.2
SISTER BAY LKSHO 0003   70     190/  6/  8   N/A
MENOMINEE LKSHOR 2342   73     210/  8/ 13  999.7F
$$




USA.gov is the U.S. government's official web portal to all federal, state and local government web resources and services.